Preview of NWS' New Version of Forecast
This preview is not operational and should not be used for support decisions.

Regional Weather Roundup (RWR)

Issued by National Weather Service (NWS)

                            
000
ASUS43 KLSX 231857
RWRMO 

WEATHER SUMMARY FOR MISSOURI
NATIONAL WEATHER SERVICE SPRINGFIELD MO
100 PM CST SAT FEB 23 2019

NOTE: "FAIR" INDICATES FEW OR NO CLOUDS BELOW 12,000 FEET WITH NO
       SIGNIFICANT WEATHER AND/OR OBSTRUCTIONS TO VISIBILITY.
       CURRENT SKY AND/OR WEATHER CONDITIONS ARE NOT AVAILABLE FOR
       CHILLICOTHE AND FARMINGTON.

MOZ001>031-035>038-043-044-053-054-232000-
...NORTHERN AND WESTERN MISSOURI...
  
CITY           SKY/WX    TMP DP  RH WIND       PRES   REMARKS
KANSAS CTY INT DRZL/FOG  38  37  97 SE12      29.53F VSB 1/4          
LEE'S SUMMIT   CLOUDY    38  38 100 E10       29.52F FOG              
ST JOSEPH      CLOUDY    36  31  82 NE5       29.58F HAZE             
CHILLICOTHE      N/A     40  40 100 NE8       29.59F                  
KIRKSVILLE     RAIN      39  37  93 E8        29.66F FOG              
     
$$
MOZ066>068-077>081-088>096-101>105-232000-
...SOUTHWEST MISSOURI...
  
CITY           SKY/WX    TMP DP  RH WIND       PRES   REMARKS
SPRINGFIELD    CLOUDY    53  51  93 SE16      29.57F                  
JOPLIN         MOSUNNY   64  46  52 SW32G47   29.53F                  
BRANSON        PTSUNNY   54  54 100 SE10      29.63F                  
               
$$
MOZ032>034-039>042-045>050-055>058-069>072-232000-
...CENTRAL MISSOURI...  
  
CITY           SKY/WX    TMP DP  RH WIND       PRES   REMARKS
COLUMBIA       NOT AVBL                                               
JEFFERSON CITY LGT RAIN  49  46  90 E8        29.62F FOG              
ROLLA          LGT RAIN  56  53  90 S14G21    29.64F                  
SEDALIA        CLOUDY    42  32  67 E8        29.58F HAZE             
WARRENSBURG    CLOUDY    37  37 100 E7        29.57F                  
               
$$
MOZ051-052-059>065-232000-
...EAST CENTRAL MISSOURI...
  
CITY           SKY/WX    TMP DP  RH WIND       PRES   REMARKS
ST LOUIS INTL  CLOUDY    49  47  93 SE15      29.69F FOG              
                   
$$
MOZ072>076-082>087-097>100-106>115-232000-
...SOUTH CENTRAL AND SOUTHEAST MISSOURI...
  
CITY           SKY/WX    TMP DP  RH WIND       PRES   REMARKS
CAPE GIRARDEAU HVY RAIN  55  53  93 SE14      29.78F FOG              
POPLAR BLUFF   CLOUDY    53  53 100 SE12      29.70F                  
WEST PLAINS    CLOUDY    56  54  93 S12       29.67F                  
                                       
$$